Regional Weather Roundup
Issued by NWS

Home | Current Version | Previous Version | Graphics & Text | Print | Product List | Glossary Off
Versions: 1 2 3 4 5 6 7 8 9 10 11 12 13 14 15 16 17 18 19 20 21 22 23 24 25 26 27 28 29 30 31 32 33 34 35 36 37 38 39 40 41 42 43 44 45 46 47 48 49 50

000
ASUS43 KMKX 042321
RWRWI

WISCONSIN REGIONAL WEATHER ROUNDUP
NATIONAL WEATHER SERVICE MILWAUKEE/SULLIVAN WI
600 PM CDT SAT JUL 04 2015

NOTE: "FAIR" INDICATES FEW OR NO CLOUDS BELOW 12,000 FEET WITH NO
SIGNIFICANT WEATHER AND/OR OBSTRUCTIONS TO VISIBILITY.

WIZ001-002-006>008-014>016-023>028-050000-
NORTHWEST WISCONSIN

CITY           SKY/WX    TMP DP  RH WIND       PRES   REMARKS
SUPERIOR ARPT  SUNNY     65  59  79 NE8       29.92F
ASHLAND        SUNNY     69  61  75 N10       29.93F
HAYWARD        SUNNY     82  57  42 S8        29.93F HX  82
SIREN          MOSUNNY   82  60  46 SW6       29.91F HAZE    HX  83
CUMBERLAND     SUNNY     79  61  53 S8        29.93F HAZE    HX  80
RICE LAKE      SUNNY     81  61  50 S7        29.94F HAZE    HX  81
CHETEK         NOT AVBL
LADYSMITH      SUNNY     81  60  49 SW7       29.95F HX  82
EAU CLAIRE     MOSUNNY   82  63  52 S7        29.92F HAZE    HX  83
MENOMONIE      MOSUNNY   82  65  57 S7        29.93S HAZE    HX  83
NEW RICHMOND   SUNNY     80  65  59 SW6       29.92F HAZE    HX  82
OSCEOLA        SUNNY     82  64  55 S8        29.93F HX  84
$$

WIZ003>005-009-010-017-018-050000-
NORTH CENTRAL WISCONSIN

CITY           SKY/WX    TMP DP  RH WIND       PRES   REMARKS
MANITOWISH WTR PTSUNNY   77  59  53 S6        29.95F
ARBOR VITAE    PTSUNNY   77  56  47 S3        29.96F
WOODRUFF       PTSUNNY   77  56  47 S3        29.96F
RHINELANDER    PTSUNNY   80  53  39 CALM      29.97F HX  80
EAGLE RIVER    PTSUNNY   77  54  44 CALM      29.96F
LAND O LAKES   PTSUNNY   78  52  39 SW6       29.97F
PHILLIPS       SUNNY     79  60  51 SW6       29.94F HX  80
TOMAHAWK       MOSUNNY   78  60  53 CALM      29.96F
MEDFORD        MOSUNNY   79  61  53 SW6       29.96F HX  80
MERRILL        MOSUNNY   81  57  44 CALM      29.96F HX  81
$$

WIZ029-030-035-036-043>047-050000-
CENTRAL WISCONSIN

CITY           SKY/WX    TMP DP  RH WIND       PRES   REMARKS
WAUSAU         MOSUNNY   81  57  43 SW5       29.94F HAZE    HX  81
MOSINEE        SUNNY     79  61  53 SW3       29.97F HX  80
MARSHFIELD     PTSUNNY   79  63  57 S3        29.96S HAZE    HX  80
STEVENS POINT  MOSUNNY   80  60  51 S5        29.96F HX  80
WAUPACA        PTSUNNY   82  63  52 SE3       29.96S HX  83
WAUTOMA        MOSUNNY   83  62  48 S8        29.96F HX  84
WISC RAPIDS    SUNNY     82  60  47 SW8       29.96F HX  82
CAMP DOUGLAS   SUNNY     80  66  62 S7        29.96S HX  82
$$

WIZ011>013-019>022-031-037>040-048>050-050000-
NORTHEAST WISCONSIN

CITY           SKY/WX    TMP DP  RH WIND       PRES   REMARKS
ANTIGO         MOSUNNY   75  63  65 S7        29.97F
SHAWANO        MOSUNNY   82  63  51 SE6       29.95F HX  83
OCONTO         MOSUNNY   76  64  66 SE7       29.96F
STURGEON BAY   SUNNY     70  57  64 SE8       30.00S
GREEN BAY      MOSUNNY   79  65  62 SE10      29.96F HX  81
MANITOWOC      MOSUNNY   68  62  81 MISG      29.99F
APPLETON       PTSUNNY   79  59  50 SW7       29.97F HX  80
CLINTONVILLE   MOSUNNY   81  59  47 S8        29.95F HX  81
OSHKOSH        MOSUNNY   81  63  54 S7        29.96F HX  82
$$

WIZ032>034-041-042-053>061-050000-
SOUTHWEST WISCONSIN

CITY           SKY/WX    TMP DP  RH WIND       PRES   REMARKS
LA CROSSE      SUNNY     82  64  54 SW12      29.94F HX  83
SPARTA         MOSUNNY   80  61  51 SW5       29.96S HX  81
VIROQUA        SUNNY     78  64  60 SW7       29.98F HX  80
BOSCOBEL       MOSUNNY   81  62  52 W5        29.96F HX  82
PRAIRIE DU CHI SUNNY     79  59  49 SW5       29.96F HX  80
PLATTEVILLE    SUNNY     79  60  51 W7        29.99S HX  80
$$

WIZ056-057-062-063-064-067-068-050000-
SOUTH CENTRAL WISCONSIN

CITY           SKY/WX    TMP DP  RH WIND       PRES   REMARKS
REEDSBURG      SUNNY     79  63  56 SW5       29.97S HX  81
BARABOO/DELLS  SUNNY     79  61  53 SW7       29.97S HX  80
LONE ROCK      SUNNY     81  60  48 W6        29.97F HX  82
MINERAL POINT  SUNNY     79  57  47 W3        30.00S HX  80
MADISON        MOSUNNY   80  60  50 W5        29.97F HX  81
MIDDLETON      SUNNY     81  59  47 W5        29.99S HX  81
WATERTOWN      SUNNY     79  63  58 SW5       29.98S HX  80
MONROE         PTSUNNY   79  61  53 CALM      29.99F HX  80
JANESVILLE     MOSUNNY   81  61  50 SW6       29.98F HX  81
$$

WIZ051-052-058>065-066-070>072-050000-
SOUTHEAST WISCONSIN

CITY           SKY/WX    TMP DP  RH WIND       PRES   REMARKS
MILWAUKEE      MOSUNNY   78  61  55 SE10      29.98S HX  80
WAUKESHA       PTSUNNY   77  59  53 W8        30.00S
MILWAUKEE/TIMM MOSUNNY   81  57  44 CALM      29.98F HX  81
RACINE         SUNNY     75  55  49 S9        30.00F
BURLINGTON     PTSUNNY   76  60  57 CALM      29.99S
KENOSHA        SUNNY     78  59  51 S8        29.99S
FOND DU LAC    SUNNY     80  62  54 SW8       29.97F HX  81
SHEBOYGAN      PTSUNNY   75  61  61 SE7       29.98S
WEST BEND      MOSUNNY   79  59  50 SW6       29.98S HX  80
JUNEAU         SUNNY     78  62  56 S3        29.99F HX  80
$$

LSZ147-162-050000-
LAKE SUPERIOR

STATION/POSITION TIME  TEMP    WIND        PRES    WAVE
                       AIR SEA DIR/SP/G            HT/PER
                 (UTC) (F)     (DEG/KT/KT) (MB)    (FT/S)
W MID LAKE BUOY  2250   43 39   70/  8/  8 1014.5F   0
DEVILS ISLAND    2300   57      80/ 10/ 11 1013.9F
SAXON HARBOR     2240   65        CALM     1013.2F
$$

LMZ867-665-643>646-050000-
LAKE MICHIGAN

STATION/POSITION TIME  TEMP    WIND        PRES    WAVE
                       AIR SEA DIR/SP/G            HT/PER
                 (UTC) (F)     (DEG/KT/KT) (MB)    (FT/S)
CHAMBERS ISLAND  2200   74     110/  5/  8 1015.2S
S GREEN BAY BUOY 2300   73 70  150/ 10/ 12 1015.9
N MID LAKE BUOY  2250   62 45  180/  4/  4 1015.2F   0
NORTHPORT PIER   2200   68     150/  6/  8 1015.2S
SISTER BAY       2214   74     180/ 10/ 11   N/A
ALGOMA LAKESHORE 2241             CALM       N/A
KEWAUNEE LAKESHO 2300   62     150/  3/  6 1015.0F
SHEBOYGAN LAKESH 2300   64     160/ 10/ 12 1015.4F
PORT WASHINGTON  2200   71     170/  3/  6 1016.3
ATWATER BUOY     2300   65 62  160/  8/ 10 1016.5F
MILWAUKEE LAKESH 2300   66     140/ 13/ 15   N/A
KENOSHA   LAKESH 2300   68     180/  7/ 10 1015.2S
$$

TC  - TEMPERATURE IN CELSIUS
VSB - VISIBILITY IN STATUTE MILES
WCI - WIND CHILL INDEX
HX  - HEAT INDEX



USA.gov is the U.S. government's official web portal to all federal, state and local government web resources and services.